Year,Month,Day,Hour,Minute,Value (Times are PST for temperature in C)
2019,03,23,00,00,8.90
2019,03,23,00,01,8.80
2019,03,23,00,02,8.80
2019,03,23,00,03,8.80
2019,03,23,00,04,8.80
2019,03,23,00,05,8.80
2019,03,23,00,06,8.80
2019,03,23,00,07,8.80
2019,03,23,00,08,8.80
2019,03,23,00,09,8.80
2019,03,23,00,10,8.80
2019,03,23,00,11,8.80
2019,03,23,00,12,8.80
2019,03,23,00,13,8.80
2019,03,23,00,14,8.80
2019,03,23,00,15,8.80
2019,03,23,00,16,8.80
2019,03,23,00,17,8.70
2019,03,23,00,18,8.70
2019,03,23,00,19,8.70
2019,03,23,00,20,8.70
2019,03,23,00,21,8.70
2019,03,23,00,22,8.70
2019,03,23,00,23,8.70
2019,03,23,00,24,8.70
2019,03,23,00,25,8.70
2019,03,23,00,26,8.70
2019,03,23,00,27,8.70
2019,03,23,00,28,8.70
2019,03,23,00,29,8.60
2019,03,23,00,30,8.60
2019,03,23,00,31,8.60
2019,03,23,00,32,8.60
2019,03,23,00,33,8.60
2019,03,23,00,34,8.60
2019,03,23,00,35,8.60
2019,03,23,00,36,8.60
2019,03,23,00,37,8.60
2019,03,23,00,38,8.60
2019,03,23,00,39,8.60
2019,03,23,00,40,8.60
2019,03,23,00,41,8.60
2019,03,23,00,42,8.60
2019,03,23,00,43,8.60
2019,03,23,00,44,8.60
2019,03,23,00,45,8.60
2019,03,23,00,46,8.60
2019,03,23,00,47,8.60
2019,03,23,00,48,8.60
2019,03,23,00,49,8.50
2019,03,23,00,50,8.50
2019,03,23,00,51,8.50
2019,03,23,00,52,8.50
2019,03,23,00,53,8.50
2019,03,23,00,54,8.50
2019,03,23,00,55,8.50
2019,03,23,00,56,8.40
2019,03,23,00,57,8.40
2019,03,23,00,58,8.40
2019,03,23,00,59,8.40
2019,03,23,01,00,8.40
2019,03,23,01,01,8.40
2019,03,23,01,02,8.40
2019,03,23,01,03,8.50
2019,03,23,01,04,8.40
2019,03,23,01,05,8.40
2019,03,23,01,06,8.40
2019,03,23,01,07,8.40
2019,03,23,01,08,8.40
2019,03,23,01,09,8.40
2019,03,23,01,10,8.40
2019,03,23,01,11,8.40
2019,03,23,01,12,8.40
2019,03,23,01,13,8.40
2019,03,23,01,14,8.40
2019,03,23,01,15,8.40
2019,03,23,01,16,8.40
2019,03,23,01,17,8.40
2019,03,23,01,18,8.40
2019,03,23,01,19,8.40
2019,03,23,01,20,8.40
2019,03,23,01,21,8.30
2019,03,23,01,22,8.30
2019,03,23,01,23,8.30
2019,03,23,01,24,8.30
2019,03,23,01,25,8.30
2019,03,23,01,26,8.30
2019,03,23,01,27,8.30
2019,03,23,01,28,8.30
2019,03,23,01,29,8.30
2019,03,23,01,30,8.30
2019,03,23,01,31,8.30
2019,03,23,01,32,8.30
2019,03,23,01,33,8.30
2019,03,23,01,34,8.30
2019,03,23,01,35,8.30
2019,03,23,01,36,8.30
2019,03,23,01,37,8.30
2019,03,23,01,38,8.20
2019,03,23,01,39,8.20
2019,03,23,01,40,8.20
2019,03,23,01,41,8.20
2019,03,23,01,42,8.20
2019,03,23,01,43,8.20
2019,03,23,01,44,8.20
2019,03,23,01,45,8.20
2019,03,23,01,46,8.20
2019,03,23,01,47,8.20
2019,03,23,01,48,8.20
2019,03,23,01,49,8.20
2019,03,23,01,50,8.20
2019,03,23,01,51,8.20
2019,03,23,01,52,8.20
2019,03,23,01,53,8.20
2019,03,23,01,54,8.20
2019,03,23,01,55,8.30
2019,03,23,01,56,8.30
2019,03,23,01,57,8.30
2019,03,23,01,58,8.30
2019,03,23,01,59,8.30
2019,03,23,02,00,8.30
2019,03,23,02,01,8.30
2019,03,23,02,02,8.30
2019,03,23,02,03,8.20
2019,03,23,02,04,8.20
2019,03,23,02,05,8.20
2019,03,23,02,06,8.20
2019,03,23,02,07,8.10
2019,03,23,02,08,8.10
2019,03,23,02,09,8.10
2019,03,23,02,10,8.10
2019,03,23,02,11,8.00
2019,03,23,02,12,8.00
2019,03,23,02,13,7.90
2019,03,23,02,14,7.90
2019,03,23,02,15,7.90
2019,03,23,02,16,7.90
2019,03,23,02,17,7.90
2019,03,23,02,18,7.80
2019,03,23,02,19,7.80
2019,03,23,02,20,7.80
2019,03,23,02,21,7.80
2019,03,23,02,22,7.80
2019,03,23,02,23,7.80
2019,03,23,02,24,7.90
2019,03,23,02,25,7.90
2019,03,23,02,26,7.90
2019,03,23,02,27,7.90
2019,03,23,02,28,7.90
2019,03,23,02,29,7.90
2019,03,23,02,30,8.00
2019,03,23,02,31,8.00
2019,03,23,02,32,8.00
2019,03,23,02,33,8.10
2019,03,23,02,34,8.10
2019,03,23,02,35,8.10
2019,03,23,02,36,8.10
2019,03,23,02,37,8.10
2019,03,23,02,38,8.00
2019,03,23,02,39,8.00
2019,03,23,02,40,8.00
2019,03,23,02,41,8.00
2019,03,23,02,42,7.90
2019,03,23,02,43,7.90
2019,03,23,02,44,7.90
2019,03,23,02,45,7.80
2019,03,23,02,46,7.80
2019,03,23,02,47,7.80
2019,03,23,02,48,7.80
2019,03,23,02,49,7.70
2019,03,23,02,50,7.70
2019,03,23,02,51,7.70
2019,03,23,02,52,7.70
2019,03,23,02,53,7.70
2019,03,23,02,54,7.80
2019,03,23,02,55,7.80
2019,03,23,02,56,7.80
2019,03,23,02,57,7.80
2019,03,23,02,58,7.80
2019,03,23,02,59,7.80
2019,03,23,03,00,7.80
2019,03,23,03,01,7.80
2019,03,23,03,02,7.80
2019,03,23,03,03,7.80
2019,03,23,03,04,7.80
2019,03,23,03,05,7.80
2019,03,23,03,06,7.80
2019,03,23,03,07,7.80
2019,03,23,03,08,7.80
2019,03,23,03,09,7.80
2019,03,23,03,10,7.80
2019,03,23,03,11,7.80
2019,03,23,03,12,7.80
2019,03,23,03,13,7.70
2019,03,23,03,14,7.70
2019,03,23,03,15,7.70
2019,03,23,03,16,7.70
2019,03,23,03,17,7.60
2019,03,23,03,18,7.60
2019,03,23,03,19,7.50
2019,03,23,03,20,7.50
2019,03,23,03,21,7.40
2019,03,23,03,22,7.40
2019,03,23,03,23,7.30
2019,03,23,03,24,7.30
2019,03,23,03,25,7.20
2019,03,23,03,26,7.10
2019,03,23,03,27,7.00
2019,03,23,03,28,6.90
2019,03,23,03,29,6.80
2019,03,23,03,30,6.70
2019,03,23,03,31,6.70
2019,03,23,03,32,6.60
2019,03,23,03,33,6.50
2019,03,23,03,34,6.40
2019,03,23,03,35,6.40
2019,03,23,03,36,6.30
2019,03,23,03,37,6.30
2019,03,23,03,38,6.30
2019,03,23,03,39,6.20
2019,03,23,03,40,6.20
2019,03,23,03,41,6.20
2019,03,23,03,42,6.10
2019,03,23,03,43,6.10
2019,03,23,03,44,6.20
2019,03,23,03,45,6.20
2019,03,23,03,46,6.30
2019,03,23,03,47,6.30
2019,03,23,03,48,6.30
2019,03,23,03,49,6.30
2019,03,23,03,50,6.30
2019,03,23,03,51,6.30
2019,03,23,03,52,6.30
2019,03,23,03,53,6.30
2019,03,23,03,54,6.30
2019,03,23,03,55,6.30
2019,03,23,03,56,6.30
2019,03,23,03,57,6.20
2019,03,23,03,58,6.20
2019,03,23,03,59,6.20
2019,03,23,04,00,6.10
2019,03,23,04,01,6.10
2019,03,23,04,02,6.10
2019,03,23,04,03,6.10
2019,03,23,04,04,6.10
2019,03,23,04,05,6.10
2019,03,23,04,06,6.10
2019,03,23,04,07,6.10
2019,03,23,04,08,6.10
2019,03,23,04,09,6.10
2019,03,23,04,10,6.10
2019,03,23,04,11,6.00
2019,03,23,04,12,6.00
2019,03,23,04,13,6.00
2019,03,23,04,14,6.00
2019,03,23,04,15,6.00
2019,03,23,04,16,5.90
2019,03,23,04,17,5.90
2019,03,23,04,18,5.90
2019,03,23,04,19,5.90
2019,03,23,04,20,5.90
2019,03,23,04,21,5.80
2019,03,23,04,22,5.80
2019,03,23,04,23,5.80
2019,03,23,04,24,5.80
2019,03,23,04,25,5.80
2019,03,23,04,26,5.80
2019,03,23,04,27,5.80
2019,03,23,04,28,5.80
2019,03,23,04,29,5.80
2019,03,23,04,30,5.80
2019,03,23,04,31,5.80
2019,03,23,04,32,5.70
2019,03,23,04,33,5.70
2019,03,23,04,34,5.70
2019,03,23,04,35,5.60
2019,03,23,04,36,5.60
2019,03,23,04,37,5.50
2019,03,23,04,38,5.40
2019,03,23,04,39,5.40
2019,03,23,04,40,5.30
2019,03,23,04,41,5.30
2019,03,23,04,42,5.20
2019,03,23,04,43,5.20
2019,03,23,04,44,5.20
2019,03,23,04,45,5.10
2019,03,23,04,46,5.10
2019,03,23,04,47,5.10
2019,03,23,04,48,5.10
2019,03,23,04,49,5.00
2019,03,23,04,50,5.00
2019,03,23,04,51,5.00
2019,03,23,04,52,5.00
2019,03,23,04,53,4.90
2019,03,23,04,54,4.90
2019,03,23,04,55,4.90
2019,03,23,04,56,4.80
2019,03,23,04,57,4.80
2019,03,23,04,58,4.80
2019,03,23,04,59,4.80
2019,03,23,05,00,4.80
2019,03,23,05,01,4.80
2019,03,23,05,02,4.70
2019,03,23,05,03,4.70
2019,03,23,05,04,4.70
2019,03,23,05,05,4.70
2019,03,23,05,06,4.70
2019,03,23,05,07,4.70
2019,03,23,05,08,4.70
2019,03,23,05,09,4.70
2019,03,23,05,10,4.70
2019,03,23,05,11,4.70
2019,03,23,05,12,4.70
2019,03,23,05,13,4.70
2019,03,23,05,14,4.70
2019,03,23,05,15,4.70
2019,03,23,05,16,4.70
2019,03,23,05,17,4.60
2019,03,23,05,18,4.60
2019,03,23,05,19,4.60
2019,03,23,05,20,4.60
2019,03,23,05,21,4.50
2019,03,23,05,22,4.50
2019,03,23,05,23,4.50
2019,03,23,05,24,4.50
2019,03,23,05,25,4.40
2019,03,23,05,26,4.40
2019,03,23,05,27,4.40
2019,03,23,05,28,4.40
2019,03,23,05,29,4.40
2019,03,23,05,30,4.30
2019,03,23,05,31,4.30
2019,03,23,05,32,4.30
2019,03,23,05,33,4.30
2019,03,23,05,34,4.30
2019,03,23,05,35,4.30
2019,03,23,05,36,4.30
2019,03,23,05,37,4.30
2019,03,23,05,38,4.30
2019,03,23,05,39,4.30
2019,03,23,05,40,4.30
2019,03,23,05,41,4.30
2019,03,23,05,42,4.30
2019,03,23,05,43,4.30
2019,03,23,05,44,4.40
2019,03,23,05,45,4.40
2019,03,23,05,46,4.40
2019,03,23,05,47,4.40
2019,03,23,05,48,4.40
2019,03,23,05,49,4.40
2019,03,23,05,50,4.40
2019,03,23,05,51,4.40
2019,03,23,05,52,4.40
2019,03,23,05,53,4.30
2019,03,23,05,54,4.30
2019,03,23,05,55,4.30
2019,03,23,05,56,4.30
2019,03,23,05,57,4.30
2019,03,23,05,58,4.30
2019,03,23,05,59,4.30
2019,03,23,06,00,4.30
2019,03,23,06,01,4.30
2019,03,23,06,02,4.30
2019,03,23,06,03,4.30
2019,03,23,06,04,4.30
2019,03,23,06,05,4.20
2019,03,23,06,06,4.20
2019,03,23,06,07,4.20
2019,03,23,06,08,4.20
2019,03,23,06,09,4.10
2019,03,23,06,10,4.10
2019,03,23,06,11,4.10
2019,03,23,06,12,4.10
2019,03,23,06,13,4.10
2019,03,23,06,14,4.10
2019,03,23,06,15,4.00
2019,03,23,06,16,4.00
2019,03,23,06,17,4.00
2019,03,23,06,18,4.00
2019,03,23,06,19,3.90
2019,03,23,06,20,3.90
2019,03,23,06,21,3.90
2019,03,23,06,22,3.90
2019,03,23,06,23,3.90
2019,03,23,06,24,3.90
2019,03,23,06,25,3.90
2019,03,23,06,26,3.80
2019,03,23,06,27,3.80
2019,03,23,06,28,3.80
2019,03,23,06,29,3.80
2019,03,23,06,30,3.80
2019,03,23,06,31,3.80
2019,03,23,06,32,3.80
2019,03,23,06,33,3.80
2019,03,23,06,34,3.80
2019,03,23,06,35,3.80
2019,03,23,06,36,3.80
2019,03,23,06,37,3.80
2019,03,23,06,38,3.80
2019,03,23,06,39,3.80
2019,03,23,06,40,3.80
2019,03,23,06,41,3.80
2019,03,23,06,42,3.80
2019,03,23,06,43,3.80
2019,03,23,06,44,3.80
2019,03,23,06,45,3.80
2019,03,23,06,46,3.70
2019,03,23,06,47,3.70
2019,03,23,06,48,3.70
2019,03,23,06,49,3.70
2019,03,23,06,50,3.70
2019,03,23,06,51,3.70
2019,03,23,06,52,3.70
2019,03,23,06,53,3.60
2019,03,23,06,54,3.60
2019,03,23,06,55,3.60
2019,03,23,06,56,3.60
2019,03,23,06,57,3.60
2019,03,23,06,58,3.60
2019,03,23,06,59,3.60
2019,03,23,07,00,3.60
2019,03,23,07,01,3.70
2019,03,23,07,02,3.70
2019,03,23,07,03,3.70
2019,03,23,07,04,3.70
2019,03,23,07,05,3.70
2019,03,23,07,06,3.70
2019,03,23,07,07,3.70
2019,03,23,07,08,3.60
2019,03,23,07,09,3.60
2019,03,23,07,10,3.60
2019,03,23,07,11,3.60
2019,03,23,07,12,3.70
2019,03,23,07,13,3.70
2019,03,23,07,14,3.70
2019,03,23,07,15,3.70
2019,03,23,07,16,3.70
2019,03,23,07,17,3.70
2019,03,23,07,18,3.70
2019,03,23,07,19,3.70
2019,03,23,07,20,3.70
2019,03,23,07,21,3.70
2019,03,23,07,22,3.70
2019,03,23,07,23,3.70
2019,03,23,07,24,3.70
2019,03,23,07,25,3.70
2019,03,23,07,26,3.80
2019,03,23,07,27,3.80
2019,03,23,07,28,3.80
2019,03,23,07,29,3.80
2019,03,23,07,30,3.80
2019,03,23,07,31,3.80
2019,03,23,07,32,3.80
2019,03,23,07,33,3.80
2019,03,23,07,34,3.80
2019,03,23,07,35,3.80
2019,03,23,07,36,3.70
2019,03,23,07,37,3.70
2019,03,23,07,38,3.70
2019,03,23,07,39,3.70
2019,03,23,07,40,3.70
2019,03,23,07,41,3.70
2019,03,23,07,42,3.70
2019,03,23,07,43,3.70
2019,03,23,07,44,3.80
2019,03,23,07,45,3.90
2019,03,23,07,46,3.90
2019,03,23,07,47,4.00
2019,03,23,07,48,4.10
2019,03,23,07,49,4.20
2019,03,23,07,50,4.20
2019,03,23,07,51,4.20
2019,03,23,07,52,4.20
2019,03,23,07,53,4.20
2019,03,23,07,54,4.20
2019,03,23,07,55,4.20
2019,03,23,07,56,4.20
2019,03,23,07,57,4.20
2019,03,23,07,58,4.20
2019,03,23,07,59,4.20
2019,03,23,08,00,4.30
2019,03,23,08,01,4.30
2019,03,23,08,02,4.30
2019,03,23,08,03,4.30
2019,03,23,08,04,4.30
2019,03,23,08,05,4.30
2019,03,23,08,06,4.30
2019,03,23,08,07,4.40
2019,03,23,08,08,4.40
2019,03,23,08,09,4.40
2019,03,23,08,10,4.50
2019,03,23,08,11,4.50
2019,03,23,08,12,4.50
2019,03,23,08,13,4.60
2019,03,23,08,14,4.60
2019,03,23,08,15,4.60
2019,03,23,08,16,4.60
2019,03,23,08,17,4.70
2019,03,23,08,18,4.70
2019,03,23,08,19,4.70
2019,03,23,08,20,4.70
2019,03,23,08,21,4.80
2019,03,23,08,22,4.80
2019,03,23,08,23,4.80
2019,03,23,08,24,4.90
2019,03,23,08,25,4.90
2019,03,23,08,26,5.00
2019,03,23,08,27,5.00
2019,03,23,08,28,5.10
2019,03,23,08,29,5.10
2019,03,23,08,30,5.10
2019,03,23,08,31,5.10
2019,03,23,08,32,5.20
2019,03,23,08,33,5.20
2019,03,23,08,34,5.20
2019,03,23,08,35,5.20
2019,03,23,08,36,5.20
2019,03,23,08,37,5.20
2019,03,23,08,38,5.20
2019,03,23,08,39,5.30
2019,03,23,08,40,5.30
2019,03,23,08,41,5.30
2019,03,23,08,42,5.30
2019,03,23,08,43,5.30
2019,03,23,08,44,5.30
2019,03,23,08,45,5.40
2019,03,23,08,46,5.40
2019,03,23,08,47,5.40
2019,03,23,08,48,5.50
2019,03,23,08,49,5.50
2019,03,23,08,50,5.50
2019,03,23,08,51,5.60
2019,03,23,08,52,5.60
2019,03,23,08,53,5.60
2019,03,23,08,54,5.60
2019,03,23,08,55,5.70
2019,03,23,08,56,5.70
2019,03,23,08,57,5.70
2019,03,23,08,58,5.70
2019,03,23,08,59,5.80
2019,03,23,09,00,5.80
2019,03,23,09,01,5.80
2019,03,23,09,02,5.80
2019,03,23,09,03,5.90
2019,03,23,09,04,5.90
2019,03,23,09,05,5.90
2019,03,23,09,06,5.90
2019,03,23,09,07,6.00
2019,03,23,09,08,6.00
2019,03,23,09,09,6.10
2019,03,23,09,10,6.10
2019,03,23,09,11,6.10
2019,03,23,09,12,6.20
2019,03,23,09,13,6.20
2019,03,23,09,14,6.20
2019,03,23,09,15,6.20
2019,03,23,09,16,6.30
2019,03,23,09,17,6.30
2019,03,23,09,18,6.30
2019,03,23,09,19,6.30
2019,03,23,09,20,6.30
2019,03,23,09,21,6.30
2019,03,23,09,22,6.30
2019,03,23,09,23,6.30
2019,03,23,09,24,6.30
2019,03,23,09,25,6.30
2019,03,23,09,26,6.40
2019,03,23,09,27,6.40
2019,03,23,09,28,6.40
2019,03,23,09,29,6.40
2019,03,23,09,30,6.40
2019,03,23,09,31,6.40
2019,03,23,09,32,6.50
2019,03,23,09,33,6.50
2019,03,23,09,34,6.50
2019,03,23,09,35,6.60
2019,03,23,09,36,6.60
2019,03,23,09,37,6.60
2019,03,23,09,38,6.60
2019,03,23,09,39,6.60
2019,03,23,09,40,6.60
2019,03,23,09,41,6.60
2019,03,23,09,42,6.60
2019,03,23,09,43,6.60
2019,03,23,09,44,6.60
2019,03,23,09,45,6.60
2019,03,23,09,46,6.60
2019,03,23,09,47,6.60
2019,03,23,09,48,6.60
2019,03,23,09,49,6.60
2019,03,23,09,50,6.60
2019,03,23,09,51,6.60
2019,03,23,09,52,6.60
2019,03,23,09,53,6.60
2019,03,23,09,54,6.60
2019,03,23,09,55,6.70
2019,03,23,09,56,6.70
2019,03,23,09,57,6.70
2019,03,23,09,58,6.70
2019,03,23,09,59,6.70
2019,03,23,10,00,6.70
2019,03,23,10,01,6.70
2019,03,23,10,02,6.70
2019,03,23,10,03,6.80
2019,03,23,10,04,6.80
2019,03,23,10,05,6.80
2019,03,23,10,06,6.80
2019,03,23,10,07,6.80
2019,03,23,10,08,6.90
2019,03,23,10,09,6.90
2019,03,23,10,10,6.90
2019,03,23,10,11,6.90
2019,03,23,10,12,6.90
2019,03,23,10,13,7.00
2019,03,23,10,14,7.00
2019,03,23,10,15,7.10
2019,03,23,10,16,7.10
2019,03,23,10,17,7.10
2019,03,23,10,18,7.20
2019,03,23,10,19,7.20
2019,03,23,10,20,7.20
2019,03,23,10,21,7.20
2019,03,23,10,22,7.30
2019,03,23,10,23,7.30
2019,03,23,10,24,7.30
2019,03,23,10,25,7.30
2019,03,23,10,26,7.40
2019,03,23,10,27,7.40
2019,03,23,10,28,7.40
2019,03,23,10,29,7.50
2019,03,23,10,30,7.50
2019,03,23,10,31,7.60
2019,03,23,10,32,7.60
2019,03,23,10,33,7.60
2019,03,23,10,34,7.70
2019,03,23,10,35,7.70
2019,03,23,10,36,7.70
2019,03,23,10,37,7.80
2019,03,23,10,38,7.80
2019,03,23,10,39,7.80
2019,03,23,10,40,7.90
2019,03,23,10,41,7.90
2019,03,23,10,42,7.90
2019,03,23,10,43,8.00
2019,03,23,10,44,8.00
2019,03,23,10,45,8.10
2019,03,23,10,46,8.10
2019,03,23,10,47,8.10
2019,03,23,10,48,8.20
2019,03,23,10,49,8.20
2019,03,23,10,50,8.30
2019,03,23,10,51,8.30
2019,03,23,10,52,8.40
2019,03,23,10,53,8.40
2019,03,23,10,54,8.40
2019,03,23,10,55,8.50
2019,03,23,10,56,8.50
2019,03,23,10,57,8.60
2019,03,23,10,58,8.70
2019,03,23,10,59,8.80
2019,03,23,11,00,8.80
2019,03,23,11,01,8.90
2019,03,23,11,02,9.00
2019,03,23,11,03,9.00
2019,03,23,11,04,9.10
2019,03,23,11,05,9.20
2019,03,23,11,06,9.20
2019,03,23,11,07,9.30
2019,03,23,11,08,9.40
2019,03,23,11,09,9.50
2019,03,23,11,10,9.50
2019,03,23,11,11,9.60
2019,03,23,11,12,9.70
2019,03,23,11,13,9.70
2019,03,23,11,14,9.80
2019,03,23,11,15,9.80
2019,03,23,11,16,9.80
2019,03,23,11,17,9.80
2019,03,23,11,18,9.80
2019,03,23,11,19,9.90
2019,03,23,11,20,9.90
2019,03,23,11,21,9.90
2019,03,23,11,22,9.90
2019,03,23,11,23,9.90
2019,03,23,11,24,9.90
2019,03,23,11,25,9.90
2019,03,23,11,26,9.90
2019,03,23,11,27,10.00
2019,03,23,11,28,10.00
2019,03,23,11,29,10.00
2019,03,23,11,30,10.00
2019,03,23,11,31,10.10
2019,03,23,11,32,10.10
2019,03,23,11,33,10.10
2019,03,23,11,34,10.10
2019,03,23,11,35,10.20
2019,03,23,11,36,10.20
2019,03,23,11,37,10.20
2019,03,23,11,38,10.20
2019,03,23,11,39,10.20
2019,03,23,11,40,10.20
2019,03,23,11,41,10.30
2019,03,23,11,42,10.30
2019,03,23,11,43,10.30
2019,03,23,11,44,10.30
2019,03,23,11,45,10.30
2019,03,23,11,46,10.30
2019,03,23,11,47,10.30
2019,03,23,11,48,10.30
2019,03,23,11,49,10.30
2019,03,23,11,50,10.30
2019,03,23,11,51,10.40
2019,03,23,11,52,10.40
2019,03,23,11,53,10.40
2019,03,23,11,54,10.50
2019,03,23,11,55,10.50
2019,03,23,11,56,10.60
2019,03,23,11,57,10.70
2019,03,23,11,58,10.80
2019,03,23,11,59,10.80
2019,03,23,12,00,10.90
2019,03,23,12,01,11.00
2019,03,23,12,02,11.10
2019,03,23,12,03,11.10
2019,03,23,12,04,11.20
2019,03,23,12,05,11.20
2019,03,23,12,06,11.20
2019,03,23,12,07,11.20
2019,03,23,12,08,11.20
2019,03,23,12,09,11.20
2019,03,23,12,10,11.20
2019,03,23,12,11,11.20
2019,03,23,12,12,11.20
2019,03,23,12,13,11.20
2019,03,23,12,14,11.20
2019,03,23,12,15,11.20
2019,03,23,12,16,11.30
2019,03,23,12,17,11.30
2019,03,23,12,18,11.30
2019,03,23,12,19,11.30
2019,03,23,12,20,11.30
2019,03,23,12,21,11.30
2019,03,23,12,22,11.30
2019,03,23,12,23,11.20
2019,03,23,12,24,11.20
2019,03,23,12,25,11.20
2019,03,23,12,26,11.10
2019,03,23,12,27,11.10
2019,03,23,12,28,11.00
2019,03,23,12,29,11.00
2019,03,23,12,30,11.00
2019,03,23,12,31,10.90
2019,03,23,12,32,10.90
2019,03,23,12,33,10.90
2019,03,23,12,34,10.90
2019,03,23,12,35,11.00
2019,03,23,12,36,10.90
2019,03,23,12,37,11.00
2019,03,23,12,38,10.90
2019,03,23,12,39,11.00
2019,03,23,12,40,11.00
2019,03,23,12,41,11.00
2019,03,23,12,42,10.90
2019,03,23,12,43,10.90
2019,03,23,12,44,10.90
2019,03,23,12,45,11.00
2019,03,23,12,46,10.90
2019,03,23,12,47,10.90
2019,03,23,12,48,10.90
2019,03,23,12,49,10.90
2019,03,23,12,50,10.90
2019,03,23,12,51,10.90
2019,03,23,12,52,10.90
2019,03,23,12,53,10.90
2019,03,23,12,54,10.90
2019,03,23,12,55,10.90
2019,03,23,12,56,10.90
2019,03,23,12,57,10.90
2019,03,23,12,58,11.00
2019,03,23,12,59,11.00
2019,03,23,13,00,11.00
2019,03,23,13,01,11.00
2019,03,23,13,02,11.10
2019,03,23,13,03,11.10
2019,03,23,13,04,11.10
2019,03,23,13,05,11.10
2019,03,23,13,06,11.10
2019,03,23,13,07,11.10
2019,03,23,13,08,11.10
2019,03,23,13,09,11.20
2019,03,23,13,10,11.20
2019,03,23,13,11,11.20
2019,03,23,13,12,11.20
2019,03,23,13,13,11.20
2019,03,23,13,14,11.20
2019,03,23,13,15,11.20
2019,03,23,13,16,11.30
2019,03,23,13,17,11.20
2019,03,23,13,18,11.20
2019,03,23,13,19,11.30
2019,03,23,13,20,11.30
2019,03,23,13,21,11.30
2019,03,23,13,22,11.30
2019,03,23,13,23,11.30
2019,03,23,13,24,11.30
2019,03,23,13,25,11.30
2019,03,23,13,26,11.30
2019,03,23,13,27,11.30
2019,03,23,13,28,11.30
2019,03,23,13,29,11.30
2019,03,23,13,30,11.30
2019,03,23,13,31,11.30
2019,03,23,13,32,11.30
2019,03,23,13,33,11.30
2019,03,23,13,34,11.40
2019,03,23,13,35,11.40
2019,03,23,13,36,11.50
2019,03,23,13,37,11.50
2019,03,23,13,38,11.60
2019,03,23,13,39,11.60
2019,03,23,13,40,11.70
2019,03,23,13,41,11.70
2019,03,23,13,42,11.70
2019,03,23,13,43,11.80
2019,03,23,13,44,11.80
2019,03,23,13,45,11.80
2019,03,23,13,46,11.80
2019,03,23,13,47,11.80
2019,03,23,13,48,11.90
2019,03,23,13,49,11.90
2019,03,23,13,50,11.90
2019,03,23,13,51,11.90
2019,03,23,13,52,11.90
2019,03,23,13,53,12.00
2019,03,23,13,54,12.00
2019,03,23,13,55,12.10
2019,03,23,13,56,12.10
2019,03,23,13,57,12.10
2019,03,23,13,58,12.10
2019,03,23,13,59,12.20
2019,03,23,14,00,12.20
2019,03,23,14,01,12.20
2019,03,23,14,02,12.20
2019,03,23,14,03,12.20
2019,03,23,14,04,12.20
2019,03,23,14,05,12.20
2019,03,23,14,06,12.10
2019,03,23,14,07,12.10
2019,03,23,14,08,12.10
2019,03,23,14,09,12.10
2019,03,23,14,10,12.10
2019,03,23,14,11,12.10
2019,03,23,14,12,12.10
2019,03,23,14,13,12.10
2019,03,23,14,14,12.20
2019,03,23,14,15,12.20
2019,03,23,14,16,12.20
2019,03,23,14,17,12.30
2019,03,23,14,18,12.30
2019,03,23,14,19,12.30
2019,03,23,14,20,12.30
2019,03,23,14,21,12.30
2019,03,23,14,22,12.30
2019,03,23,14,23,12.30
2019,03,23,14,24,12.30
2019,03,23,14,25,12.30
2019,03,23,14,26,12.30
2019,03,23,14,27,12.30
2019,03,23,14,28,12.30
2019,03,23,14,29,12.30
2019,03,23,14,30,12.30
2019,03,23,14,31,12.30
2019,03,23,14,32,12.20
2019,03,23,14,33,12.20
2019,03,23,14,34,12.20
2019,03,23,14,35,12.20
2019,03,23,14,36,12.20
2019,03,23,14,37,12.20
2019,03,23,14,38,12.20
2019,03,23,14,39,12.20
2019,03,23,14,40,12.20
2019,03,23,14,41,12.20
2019,03,23,14,42,12.10
2019,03,23,14,43,12.10
2019,03,23,14,44,12.10
2019,03,23,14,45,12.20
2019,03,23,14,46,12.20
2019,03,23,14,47,12.20
2019,03,23,14,48,12.20
2019,03,23,14,49,12.20
2019,03,23,14,50,12.30
2019,03,23,14,51,12.30
2019,03,23,14,52,12.30
2019,03,23,14,53,12.30
2019,03,23,14,54,12.30
2019,03,23,14,55,12.30
2019,03,23,14,56,12.30
2019,03,23,14,57,12.20
2019,03,23,14,58,12.20
2019,03,23,14,59,12.10
2019,03,23,15,00,12.10
2019,03,23,15,01,12.00
2019,03,23,15,02,12.00
2019,03,23,15,03,12.00
2019,03,23,15,04,12.00
2019,03,23,15,05,12.00
2019,03,23,15,06,12.00
2019,03,23,15,07,12.10
2019,03,23,15,08,12.10
2019,03,23,15,09,12.10
2019,03,23,15,10,12.10
2019,03,23,15,11,12.10
2019,03,23,15,12,12.10
2019,03,23,15,13,12.10
2019,03,23,15,14,12.10
2019,03,23,15,15,12.00
2019,03,23,15,16,12.00
2019,03,23,15,17,12.00
2019,03,23,15,18,12.00
2019,03,23,15,19,12.00
2019,03,23,15,20,11.90
2019,03,23,15,21,11.90
2019,03,23,15,22,11.90
2019,03,23,15,23,11.90
2019,03,23,15,24,11.90
2019,03,23,15,25,11.90
2019,03,23,15,26,11.90
2019,03,23,15,27,11.90
2019,03,23,15,28,11.90
2019,03,23,15,29,11.90
2019,03,23,15,30,11.90
2019,03,23,15,31,11.90
2019,03,23,15,32,11.90
2019,03,23,15,33,12.00
2019,03,23,15,34,12.00
2019,03,23,15,35,12.10
2019,03,23,15,36,12.10
2019,03,23,15,37,12.10
2019,03,23,15,38,12.10
2019,03,23,15,39,12.20
2019,03,23,15,40,12.20
2019,03,23,15,41,12.20
2019,03,23,15,42,12.20
2019,03,23,15,43,12.30
2019,03,23,15,44,12.30
2019,03,23,15,45,12.30
2019,03,23,15,46,12.30
2019,03,23,15,47,12.30
2019,03,23,15,48,12.30
2019,03,23,15,49,12.30
2019,03,23,15,50,12.30
2019,03,23,15,51,12.30
2019,03,23,15,52,12.30
2019,03,23,15,53,12.30
2019,03,23,15,54,12.30
2019,03,23,15,55,12.40
2019,03,23,15,56,12.30
2019,03,23,15,57,12.30
2019,03,23,15,58,12.30
2019,03,23,15,59,12.30
2019,03,23,16,00,12.20
2019,03,23,16,01,12.20
2019,03,23,16,02,12.20
2019,03,23,16,03,12.20
2019,03,23,16,04,12.20
2019,03,23,16,05,12.20
2019,03,23,16,06,12.20
2019,03,23,16,07,12.20
2019,03,23,16,08,12.20
2019,03,23,16,09,12.30
2019,03,23,16,10,12.30
2019,03,23,16,11,12.30
2019,03,23,16,12,12.30
2019,03,23,16,13,12.30
2019,03,23,16,14,12.30
2019,03,23,16,15,12.30
2019,03,23,16,16,12.30
2019,03,23,16,17,12.30
2019,03,23,16,18,12.30
2019,03,23,16,19,12.30
2019,03,23,16,20,12.30
2019,03,23,16,21,12.30
2019,03,23,16,22,12.30
2019,03,23,16,23,12.30
2019,03,23,16,24,12.30
2019,03,23,16,25,12.40
2019,03,23,16,26,12.40
2019,03,23,16,27,12.40
2019,03,23,16,28,12.40
2019,03,23,16,29,12.40
2019,03,23,16,30,12.40
2019,03,23,16,31,12.40
2019,03,23,16,32,12.40
2019,03,23,16,33,12.40
2019,03,23,16,34,12.40
2019,03,23,16,35,12.40
2019,03,23,16,36,12.50
2019,03,23,16,37,12.50
2019,03,23,16,38,12.50
2019,03,23,16,39,12.50
2019,03,23,16,40,12.50
2019,03,23,16,41,12.50
2019,03,23,16,42,12.50
2019,03,23,16,43,12.50
2019,03,23,16,44,12.50
2019,03,23,16,45,12.50
2019,03,23,16,46,12.50
2019,03,23,16,47,12.50
2019,03,23,16,48,12.50
2019,03,23,16,49,12.60
2019,03,23,16,50,12.60
2019,03,23,16,51,12.60
2019,03,23,16,52,12.60
2019,03,23,16,53,12.60
2019,03,23,16,54,12.60
2019,03,23,16,55,12.60
2019,03,23,16,56,12.60
2019,03,23,16,57,12.60
2019,03,23,16,58,12.60
2019,03,23,16,59,12.70
2019,03,23,17,00,12.70
2019,03,23,17,01,12.70
2019,03,23,17,02,12.70
2019,03,23,17,03,12.70
2019,03,23,17,04,12.70
2019,03,23,17,05,12.70
2019,03,23,17,06,12.60
2019,03,23,17,07,12.60
2019,03,23,17,08,12.60
2019,03,23,17,09,12.60
2019,03,23,17,10,12.60
2019,03,23,17,11,12.60
2019,03,23,17,12,12.60
2019,03,23,17,13,12.60
2019,03,23,17,14,12.60
2019,03,23,17,15,12.70
2019,03,23,17,16,12.70
2019,03,23,17,17,12.80
2019,03,23,17,18,12.80
2019,03,23,17,19,12.80
2019,03,23,17,20,12.90
2019,03,23,17,21,12.90
2019,03,23,17,22,12.90
2019,03,23,17,23,12.90
2019,03,23,17,24,12.90
2019,03,23,17,25,13.00
2019,03,23,17,26,13.00
2019,03,23,17,27,13.00
2019,03,23,17,28,13.00
2019,03,23,17,29,13.00
2019,03,23,17,30,13.00
2019,03,23,17,31,13.00
2019,03,23,17,32,13.00
2019,03,23,17,33,13.00
2019,03,23,17,34,12.90
2019,03,23,17,35,12.90
2019,03,23,17,36,12.90
2019,03,23,17,37,12.80
2019,03,23,17,38,12.80
2019,03,23,17,39,12.80
2019,03,23,17,40,12.80
2019,03,23,17,41,12.80
2019,03,23,17,42,12.80
2019,03,23,17,43,12.70
2019,03,23,17,44,12.70
2019,03,23,17,45,12.70
2019,03,23,17,46,12.70
2019,03,23,17,47,12.70
2019,03,23,17,48,12.70
2019,03,23,17,49,12.70